Location: Lynch Observatory
(39.9540°N, 75.1861°W)
Time: 06:13:33
(UTC-04:00)

Tiangong - Visible Passes

Search period start: 09 August 2022 00:00
Search period end: 19 August 2022 00:00
Orbit: 379 x 387 km, 41.5° (Epoch: 08 August)

Date Brightness Start Highest point End Pass type
(mag) Time Alt. Az. Time Alt. Az. Time Alt. Az.
09 Aug 1.0 03:19:43 12° E 03:19:43 12° E 03:19:59 10° E visible
09 Aug -2.0 04:51:56 23° W 04:53:38 52° SSW 04:56:44 10° ESE visible
10 Aug -0.1 03:55:19 23° ESE 03:55:19 23° ESE 03:56:38 10° ESE visible
10 Aug -0.6 05:27:37 10° W 05:29:59 19° SSW 05:32:21 10° SSE visible
11 Aug -0.5 04:31:15 22° SSE 04:31:15 22° SSE 04:32:46 10° SE visible
14 Aug -0.9 21:12:48 10° SSW 21:15:11 24° SSE 21:15:11 24° SSE visible
15 Aug -1.2 21:48:36 10° WSW 21:50:42 37° SW 21:50:42 37° SW visible
16 Aug -1.7 20:48:29 10° SW 20:51:27 40° SSE 20:53:41 15° E visible
16 Aug 0.5 22:25:02 10° W 22:25:53 17° W 22:25:53 17° W visible
17 Aug -2.3 21:24:40 10° WSW 21:27:47 88° NNW 21:28:38 45° ENE visible
18 Aug -2.1 20:24:20 10° WSW 20:27:27 64° SSE 20:30:33 10° E visible
18 Aug -0.9 22:01:10 10° W 22:03:23 40° WNW 22:03:23 40° WNW visible
